Naples, FL

10:04 AM EST on January 22, 2018 (GMT -0500)
Naples Municipal

Weather History for KAPF - October, 2011

Change the Weather History Date:

Sunday, October 2, 2011

  Actual Average Record
Temperature  
Mean Temperature 77 °F 81 °F  
Max Temperature 86 °F 89 °F 93 °F (1977)
Min Temperature 67 °F 73 °F 58 °F (1976)
Degree Days  
Heating Degree Days 0 0  
Month to date heating degree days 0 0  
Since 1 July heating degree days 0 0  
Cooling Degree Days 12 16  
Month to date cooling degree days 27 32  
Year to date cooling degree days 3561 3209  
Growing Degree Days 25 (Base 50)    
Moisture  
Dew Point 62 °F    
Average Humidity 65    
Maximum Humidity 81    
Minimum Humidity 48    
Precipitation  
Precipitation 0.00 in 0.20 in 10.70 in (1951)
Month to date precipitation 0.00 0.42  
Year to date precipitation 28.00 44.63  
Snow  
Snow 0.00 in - - ()
Month to date snowfall 0.0  
Since 1 July snowfall 0.0  
Since 1 September snowfall 0.0  
Snow Depth 0.00 in    
Sea Level Pressure  
Sea Level Pressure 29.96 in    
Wind  
Wind Speed 9 mph (NNE)    
Max Wind Speed 16 mph    
Max Gust Speed 21 mph    
Visibility 10 miles    
Events      
T = Trace of Precipitation, MM = Missing Value Source: NWS Daily Summary

Daily Weather History Graph

Daily Weather History Graph

Search for Another Location

Airport or City:

Trip Planner

Search our weather history database for the weather conditions in past years. The results will help you decide how hot, cold, wet, or windy it might be!

Date:

Astronomy

Oct. 02, 2011 Rise Set
Actual Time 7:19 AM EDT 7:12 PM EDT
Civil Twilight 6:56 AM EDT 7:35 PM EDT
Nautical Twilight 6:30 AM EDT 8:02 PM EDT
Astronomical Twilight 6:03 AM EDT 8:29 PM EDT
Moon 12:52 PM EDT (10/2) 11:41 PM EDT (10/2)
Length of Visible Light 12h 39m
Length of Day
11h 53m
Waxing Crescent, 34% of the Moon is Illuminated
Oct 2
Waxing Crescent
Oct 3
First Quarter
Oct 11
Full
Oct 19
Last Quarter
Oct 26
New

Hourly Weather History & Observations

Time (EDT) Temp. Heat Index Dew Point Humidity Pressure Visibility Wind Dir Wind Speed Gust Speed Precip Events Conditions
12:53 AM 72.0 °F - 59.0 °F 64% 29.92 in 10.0 mi NNE 8.1 mph 17.3 mph N/A   Clear
1:53 AM 71.1 °F - 62.1 °F 73% 29.91 in 10.0 mi NNE 11.5 mph - N/A   Clear
2:53 AM 70.0 °F - 63.0 °F 78% 29.91 in 10.0 mi NE 10.4 mph - N/A   Clear
3:53 AM 69.1 °F - 63.0 °F 81% 29.91 in 10.0 mi NE 10.4 mph - N/A   Clear
4:53 AM 68.0 °F - 62.1 °F 81% 29.92 in 10.0 mi NE 9.2 mph - N/A   Clear
5:53 AM 66.9 °F - 61.0 °F 81% 29.92 in 10.0 mi NNE 10.4 mph - N/A   Clear
6:53 AM 66.9 °F - 60.1 °F 79% 29.94 in 10.0 mi NNE 9.2 mph - N/A   Clear
7:53 AM 66.9 °F - 59.0 °F 76% 29.95 in 10.0 mi NNE 10.4 mph - N/A   Clear
8:53 AM 70.0 °F - 57.9 °F 65% 29.96 in 10.0 mi NE 8.1 mph - N/A   Clear
9:53 AM 73.9 °F - 59.0 °F 59% 29.98 in 10.0 mi NE 12.7 mph - N/A   Clear
10:53 AM 78.8 °F - 60.8 °F 54% 29.99 in 10.0 mi NE 11.5 mph - N/A   Clear
11:53 AM 80.6 °F 81.8 °F 62.6 °F 54% 29.99 in 10.0 mi ENE 9.2 mph - N/A   Clear
12:53 PM 82.9 °F 84.4 °F 64.0 °F 53% 29.98 in 10.0 mi NE 8.1 mph - N/A   Clear
1:53 PM 84.9 °F 85.9 °F 63.0 °F 48% 29.96 in 10.0 mi NE 4.6 mph - N/A   Scattered Clouds
3:53 PM 84.9 °F 86.6 °F 64.9 °F 51% 29.94 in 10.0 mi NW 10.4 mph - N/A   Clear
4:53 PM 82.4 °F 83.4 °F 62.6 °F 51% 29.94 in 10.0 mi NW 10.4 mph - N/A   Partly Cloudy
5:53 PM 82.0 °F 83.1 °F 63.0 °F 52% 29.94 in 10.0 mi NW 11.5 mph - N/A   Partly Cloudy
6:53 PM 81.0 °F 82.2 °F 63.0 °F 54% 29.95 in 10.0 mi NNW 9.2 mph - N/A   Clear
7:53 PM 79.0 °F - 64.0 °F 60% 29.96 in 10.0 mi NW 6.9 mph - N/A   Clear
8:53 PM 78.8 °F - 64.4 °F 61% 29.99 in 10.0 mi NNW 6.9 mph - N/A   Clear
9:53 PM 75.9 °F - 64.0 °F 67% 30.00 in 10.0 mi North 3.5 mph - N/A   Clear
10:53 PM 75.0 °F - 63.0 °F 66% 30.02 in 10.0 mi NNE 3.5 mph - N/A   Mostly Cloudy
11:53 PM 73.0 °F - 64.0 °F 73% 30.02 in 10.0 mi North 4.6 mph - N/A   Partly Cloudy